Location: Bear Branch Nature Center
(39.6445°N, 76.9901°W)
Time: 16:33:51
(UTC-04:00)

Daily predictions for brighter satellites

Satellite Brightness Start Highest point End
(mag) Time Altitude Azimuth Time Altitude Azimuth Time Altitude Azimuth
Cosmos 2242 Rocket 3.7 20:29:25 10° S 20:33:55 86° W 20:38:24 10° N
Cosmos 1655 Rocket 4.1 20:28:08 10° N 20:34:29 65° E 20:40:46 10° SSE
USA 229 DEB 3.8 20:29:19 10° S 20:35:52 52° ESE 20:42:32 10° NE
USA 229 3.8 20:29:26 10° S 20:35:59 52° ESE 20:42:39 10° NE
Cosmos 1862 3.4 20:32:08 10° N 20:36:09 61° E 20:40:10 10° SSE
Cosmos 2279 Rocket 4.0 20:32:10 10° S 20:38:20 69° E 20:44:32 10° NNE
Cosmos 1408 2.9 20:36:14 10° NNW 20:39:54 71° W 20:43:30 10° S
Cosmos 2322 Rocket 3.3 20:35:09 10° SW 20:40:35 50° WNW 20:46:04 10° NNE
Cosmos 1825 2.6 20:40:36 10° NNW 20:44:23 65° W 20:48:08 10° S
FALCON 9 R/B 1.5 20:43:38 10° WSW 20:46:06 27° S 20:47:36 14° SE
Cosmos 2360 Rocket 2.2 20:41:13 10° SSW 20:46:50 72° ESE 20:52:30 10° NNE
Cosmos 1428 Rocket 4.4 20:43:46 10° N 20:49:53 73° E 20:56:00 10° SSE
ATLAS 5 CENTAUR R/B 2.5 20:47:19 10° NNW 20:53:25 88° ENE 21:00:00 10° SSE
H-2A R/B 4.2 20:50:06 10° SSW 20:53:44 39° W 20:57:21 10° NNW
COSMOS 2428 3.2 20:51:06 10° S 20:56:15 37° ESE 21:01:26 10° NE
Cosmos 1908 Rocket 3.9 20:53:37 10° N 20:57:48 46° E 21:01:40 12° SSE
Resurs 01 Rocket 2.6 20:55:02 10° S 20:59:19 47° W 21:03:39 10° NNW
USA 267 3.6 20:54:34 10° NE 21:01:05 69° NW 21:07:33 10° WSW
SJ-11-01 4.5 20:57:12 10° SSE 21:01:43 54° ENE 21:06:16 10° N
BREEZE-M DEB (TANK) 4.5 20:59:23 10° WNW 21:02:36 42° N 21:11:00 10° E
Helios 1A 3.0 20:59:03 10° SSE 21:03:17 79° ENE 21:07:33 10° N
Cosmos 1939 Rocket 3.1 21:00:53 13° SSE 21:04:21 51° ENE 21:08:13 10° N
Atlas Centaur 2 3.3 21:02:09 10° WSW 21:07:49 38° S 21:12:50 17° ESE
CZ-4B DEB 2.6 21:06:09 17° SSE 21:08:20 63° ENE 21:11:21 10° N
Cosmos 2322 3.8 21:03:45 10° SSW 21:09:28 87° WNW 21:15:12 10° NNE
Okean 1-7 3.7 21:08:36 14° SSE 21:11:51 35° E 21:15:53 10° NNE
Abrixas rocket 4.5 21:10:00 10° NW 21:12:28 19° N 21:14:56 10° ENE
Cosmos 1733 Rocket 4.1 21:08:12 10° NNW 21:12:30 48° W 21:16:46 10° SSW
Cosmos 1782 Rocket 4.1 21:08:35 10° N 21:12:42 38° ENE 21:15:11 21° SE
SL-16 R/B 4.4 21:08:07 10° WSW 21:13:00 29° WNW 21:17:55 10° N
Cosmos 1606 4.4 21:13:17 16° E 21:13:17 16° E 21:15:27 10° NE
YAOGAN 6 3.3 21:11:35 22° SE 21:13:21 35° ENE 21:16:39 10° N
Sich 1 Rocket 3.6 21:09:06 10° N 21:13:37 71° E 21:17:38 13° SSE
Cosmos 968 Rocket 3.7 21:20:46 10° NNW 21:25:57 70° WSW 21:30:31 14° S
Meteor 2-10 Rocket 4.0 21:20:15 10° SSW 21:26:03 74° W 21:31:50 10° N
Cosmos 1844 Rocket 3.1 21:21:29 10° NNW 21:26:52 47° ENE 21:29:48 25° ESE
CZ-4C R/B 3.9 21:20:48 10° NNW 21:26:58 31° NE 21:31:55 16° E
Cosmos 2237 Rocket 3.3 21:26:55 21° ESE 21:27:17 22° E 21:31:29 10° NE
Meteor 1-14 Rocket 4.2 21:23:07 10° N 21:28:52 76° E 21:33:26 17° SSE
Cosmos 2333 4.2 21:26:10 10° S 21:31:49 67° ESE 21:37:33 10° NNE
Cosmos 2278 Rocket 3.6 21:28:46 10° N 21:33:15 23° NE 21:35:33 18° E
Okean 2 Rocket 3.4 21:29:14 10° N 21:33:37 47° E 21:35:19 31° SE
USA 234 3.6 21:30:18 20° ESE 21:34:46 56° NE 21:41:08 10° NW
Cosmos 2333 Rocket 2.8 21:32:00 20° SSE 21:35:13 36° ESE 21:40:25 10° NE
Helios 1B rocket 3.7 21:34:15 10° N 21:38:08 42° WNW 21:42:01 10° SW
Cosmos 1703 Rocket 4.0 21:40:16 10° SSW 21:44:39 62° W 21:49:02 10° N
Envisat 4.0 21:43:08 10° S 21:47:59 45° W 21:52:51 10° NNW
Cosmos 2219 Rocket 2.2 21:43:06 10° S 21:48:34 59° ESE 21:54:05 10° NNE
Cosmos 1633 4.1 21:45:54 10° NNE 21:48:20 23° ENE 21:48:20 23° ENE
SPOT 5 3.0 21:57:52 44° ESE 21:58:53 53° ENE 22:03:20 10° N
SeaSat 1 3.5 21:58:47 27° E 21:59:58 31° NE 22:04:17 10° N
Gbstr 26 Del rocket 4.4 21:53:09 10° SSW 22:00:30 59° SE 22:08:29 10° ENE
NOSS 0 Rocket 3.9 22:00:21 25° S 22:03:48 56° ESE 22:09:49 10° NNE
ERS-1 Rocket 3.2 22:01:58 30° S 22:04:27 68° WSW 22:09:28 10° NNW
H-2A R/B 2.5 22:06:42 37° E 22:07:15 38° ENE 22:11:48 10° N
Cosmos 2151 Rocket 3.7 22:04:06 10° N 22:08:29 54° E 22:08:40 54° E
Milstar 3 4.3 22:05:18 10° WSW 22:10:18 19° SSW 22:11:48 17° S
Cosmos 1674 Rocket 4.5 22:15:44 34° ENE 22:15:44 34° ENE 22:18:42 10° NNE
Cosmos 1570 Rocket 3.9 22:11:35 24° SSW 22:14:47 90° NNW 22:20:07 10° NNE
NOSS 3-1 (C) 3.5 22:13:02 10° SW 22:18:46 73° NW 22:25:12 10° NNE
MetOp-B 4.2 22:17:11 42° S 22:19:02 76° WSW 22:24:24 10° NNW
Cosmos 1782 3.3 22:18:24 42° SW 22:19:26 57° W 22:23:24 10° N
ASTEX 1 4.0 22:21:11 40° ENE 22:21:11 40° ENE 22:25:39 10° N
YAOGAN 11 4.2 22:20:58 59° SSW 22:21:36 69° WSW 22:25:55 10° NNW
Iridium 4 Rocket 4.4 22:21:56 10° NNE 22:24:24 26° NE 22:24:24 26° NE
H-2A R/B 3.2 22:27:25 31° NE 22:27:25 31° NE 22:30:40 10° N
Cosmos 2208 Rocket 4.1 22:25:07 27° SSW 22:28:05 77° WNW 22:33:25 10° NNE
Cosmos 1346 Rocket 3.4 22:31:35 49° NNE 22:31:35 49° NNE 22:34:34 10° N
Terra 2.7 22:32:31 35° ENE 22:32:31 35° ENE 22:36:23 10° N
Meteor 1-27 Rocket 3.6 22:33:10 63° SSE 22:34:03 78° E 22:39:39 10° NNE
NOSS 3-1 (A) 3.5 22:30:50 10° SW 22:36:35 75° NW 22:43:02 10° NNE
ATLAS 2AS CENTAUR R/B 3.9 22:39:31 29° E 22:39:31 29° E 22:44:37 10° NE
COSMOS 2428 4.5 22:35:32 10° WSW 22:40:32 31° WNW 22:45:35 10° N
ARGOS 3.4 22:41:15 49° SSW 22:42:21 60° W 22:47:42 10° NNW
Cosmos 1980 3.7 22:42:14 40° SW 22:44:19 77° WNW 22:50:00 10° NNE
Cosmos 1898 Rocket 3.6 22:39:37 10° NNW 22:44:33 59° ENE 22:44:33 59° ENE
SL-08 R/B 4.3 22:40:19 10° N 22:46:28 89° E 22:47:23 67° S
Cosmos 1553 Rocket 3.9 22:46:04 53° SSW 22:47:42 84° W 22:53:56 10° N
Cosmos 1300 Rocket 4.1 22:44:13 10° N 22:47:37 53° N 22:47:37 53° N
Cosmos 1606 4.4 22:48:19 28° W 22:48:39 29° WNW 22:51:59 10° NNW
Cosmos 1844 4.3 22:43:28 10° NW 22:48:51 47° WSW 22:49:48 43° SW
SL-16 R/B 3.1 22:53:21 35° ENE 22:53:21 35° ENE 22:56:54 10° NE
SPOT 1/Viking Rocket 3.8 22:55:00 60° WSW 22:55:20 61° W 23:00:30 10° NNW
Atlas Centaur 2 3.8 22:50:46 10° WSW 22:55:28 29° SSW 22:55:28 29° SSW
ATLAS 3B R/B 4.1 22:55:27 10° NNW 23:01:05 26° NE 23:03:13 22° ENE
Meteor 1-11 Rocket 3.8 22:58:16 10° NNW 23:03:45 65° W 23:04:01 64° WSW
ATLAS CENTAUR R/B 3.7 23:12:45 17° NNE 23:12:45 17° NNE 23:13:44 10° NNE
Cosmos 1844 Rocket 4.3 23:06:07 10° NW 23:10:22 23° W 23:11:29 21° WSW
Cosmos 2237 Rocket 2.9 23:08:37 32° WSW 23:10:55 51° WNW 23:16:28 10° NNE
Cosmos 468 Rocket 4.3 23:13:08 66° NW 23:13:08 66° NW 23:18:13 10° NNE
Cosmos 883 Rocket 4.4 23:14:58 74° NE 23:14:58 74° NE 23:20:42 10° N
CZ-4C R/B 2.9 23:08:52 10° NW 23:16:06 69° WSW 23:17:07 63° SSW
Cosmos 1386 Rocket 4.4 23:10:35 10° N 23:16:58 83° W 23:17:08 82° SW
Cosmos 2278 Rocket 2.7 23:12:09 10° NNW 23:17:25 51° W 23:17:25 51° W
USA 234 3.8 23:17:39 42° SW 23:17:50 42° SW 23:23:59 10° WNW
Cosmos 2333 Rocket 3.8 23:14:19 10° WSW 23:19:28 33° WNW 23:24:38 10° N
Cosmos 1709 Rocket 4.1 23:21:40 10° N 23:27:37 71° NE 23:27:37 71° NE
Cosmos 2219 Rocket 4.5 23:28:47 10° W 23:32:56 21° NW 23:37:06 10° N
SeaSat 1 3.9 23:38:34 31° W 23:38:34 31° W 23:41:53 10° NW
H-2A R/B 3.8 23:47:19 22° W 23:47:19 22° W 23:50:37 10° NW
